Regional Weather Roundup
Issued by NWS

Home | Current Version | Previous Version | Text Only | Print | Product List | Glossary On
Versions: 1 2 3 4 5 6 7 8 9 10 11 12 13 14 15 16 17 18 19 20 21 22 23 24 25 26 27 28 29 30 31 32 33 34 35 36 37 38 39 40 41 42 43 44 45 46 47 48 49 50
844
ASUS45 KTFX 051710
RWRMT
MONTANA REGIONAL WEATHER ROUNDUP
NATIONAL WEATHER SERVICE GREAT FALLS MT
1000 AM MST MON DEC 05 2016

NOTE: "FAIR" INDICATES FEW OR NO CLOUDS BELOW 12000 FEET WITH NO
SIGNIFICANT WEATHER AND/OR OBSTRUCTIONS TO VISIBILITY.

MTZ001>007-043-051800-
WEST OF THE DIVIDE

CITY           SKY/WX    TMP DP  RH WIND       PRES   REMARKS
KALISPELL      CLOUDY    22  14  71 SW9       29.98R WCI  12
MULLAN PASS      N/A     10   7  87 VRB6      29.84R WCI   0
ANACONDA         N/A     19   1  45 W9        29.92R WCI   9
DEER LODGE       N/A     19   7  58 CALM      29.94R
EUREKA           N/A     23  21  93 SE8       29.99R VSB 1/2 WCI  14
HAMILTON         N/A     25   9  50 E6        30.02R WCI  18
LIBBY            N/A     21  19  93 CALM      30.01R
PLAINS           N/A     21  13  71 CALM      30.05
$$

MTZ008-052>055-051800-
SOUTHWEST MONTANA

CITY           SKY/WX    TMP DP  RH WIND       PRES   REMARKS
BOZEMAN        CLOUDY    20  12  71 W9        29.94R WCI   9
W YELLOWSTONE  MOSUNNY   10   0  61 W6        29.82R WCI   1
ENNIS          PTSUNNY   18   1  49 NW16G22   29.95R WCI   3
$$

MTZ009-010-012-014-046-048-049-054-051800-
EAST SLOPES AND CENTRAL MONTANA

CITY           SKY/WX    TMP DP  RH WIND       PRES   REMARKS
CUT BANK       PTSUNNY    6   0  76 NW17      29.99R WCI -13
MALMSTROM AFB  CLOUDY    13   7  78 N8        30.03R WCI   2
HELENA         LGT SNOW  20  15  81 W5        29.97R VSB 3/4
AUGUSTA        PTSUNNY    8   4  83 NE13      29.94R WCI  -8
BOWMANS CRNR   FLURRIES   9   5  84 NE10      29.94R WCI  -5
CHOTEAU          N/A     10   3  72 N15       30.01R WCI  -6
CONRAD           N/A      9   3  76 NW18      30.02R WCI  -9
FAIRFIELD      PTSUNNY   10   2  70 N10       29.99R WCI  -4
POWER          FLURRIES  10   3  74 N16       29.98R WCI  -7
RAYNESFORD     LGT SNOW  10   6  85 N5        29.98R
ULM            PTSUNNY   15   8  75 N14       30.02R WCI   0
$$

MTZ011-013-016-021-045-047-050-051-051800-
NORTH CENTRAL MONTANA

CITY           SKY/WX    TMP DP  RH WIND       PRES   REMARKS
HAVRE          CLOUDY     9   1  70 NW22G29   30.06R WCI -11
LEWISTOWN      FLURRIES  10   5  80 NW16G25   29.90R WCI  -7
N BAR RANCH      N/A     12   3  67 NW22G37   29.82R WCI  -7
CHINOOK          N/A      9   0  66 W15G23    30.02R WCI  -8
DENTON         FLURRIES   9   5  84 NW9G30    29.93R WCI  -5
GEYSER         PTSUNNY   11   3  72 W25G35    29.91R WCI -10
GRASS RANGE      N/A     13   7  76 W31G46    29.82R WCI  -8
JUDITH GAP     FLURRIES  10   6  82 N30       29.83S WCI -12
ROY              N/A     10   6  81 MISG      29.85R
STANFORD         N/A      9   5  84 NW30G37   29.88R WCI -14
WINIFRED       PTSUNNY    9   5  84 MISG      29.92R
$$

MTZ017>020-022>027-061-062-051800-
NORTHEAST MONTANA

CITY           SKY/WX    TMP DP  RH WIND       PRES   REMARKS
GLASGOW        CLOUDY    13   5  70 NW30G41   29.88R WCI  -8
JORDAN           N/A     17  11  77 NW23G31   29.89R WCI  -1
SIDNEY         LGT SNOW  21  16  79 NW24G31   29.73R WCI   4
WOLF POINT     LGT SNOW  19  12  74 NW26G35   29.82R WCI   1
PLENTYWOOD       N/A     18  16  93 NW31G39   29.68R VSB 0   WCI  -2
POPLAR           N/A     18  12  79 NW18G31   29.80R WCI   2
$$

MTZ028>42-056>058-051800-
SOUTHCENTRAL AND SOUTHEAST MONTANA

CITY           SKY/WX    TMP DP  RH WIND       PRES   REMARKS
BAKER          FLURRIES  21  15  78 NW29G39   29.70R WCI   3
BILLINGS       CLOUDY    22   7  52 NW30G38   29.86R WCI   4
BIG TIMBER     MOSUNNY   19   7  58 W26G35    29.87R WCI   1
EKALAKA          N/A     19  13  77 W24       29.70  WCI   2
FORSYTH          N/A     21  16  79 W20G26    29.85R WCI   6
HARLOWTON      PTSUNNY   18   5  57 W18       29.87R WCI   2
LAUREL           N/A     23   1  38 W16       29.86R WCI  10
$$

REGIONAL REPORTS...DAKOTAS

CITY           SKY/WX    TMP DP  RH WIND       PRES   REMARKS
WILLISTON      LGT SNOW  23  18  81 NW25G32   29.65R WCI   7
MINOT          CLOUDY    24  20  84 CALM      29.55R
DICKINSON      CLOUDY    22  18  85 NW31G38   29.58R FOG     WCI   4
BEACH          LGT SNOW  19  18  93 NW28G38   29.71R WCI   1
CROSBY         LGT SNOW  21  21 100 NW20G25   29.63R VSB 1   WCI   6
TIOGA          CLOUDY    19  19 100 NW21      29.58S WCI   3
WATFORD CITY   CLOUDY    23  18  80 NW17G29   29.63R WCI   9
BISMARCK       SNOW      32  31  96 NW10      29.58S VSB 1/2 WCI  24
GRAND FORKS    CLOUDY    28  26  92 E9        29.68S FOG     WCI  19
FARGO          MOSUNNY   30  26  85 E7        29.63F WCI  23
BUFFALO SD       N/A     25  18  74 NW39G51   29.56R WCI   6
RAPID CITY     CLOUDY    28  20  71 NW37G47   29.61R WCI  11
$$

REGIONAL REPORTS...WYOMING/IDAHO/WASHINGTON

CITY           SKY/WX    TMP DP  RH WIND       PRES   REMARKS
GILLETTE       LGT SNOW  20  17  88 N21       29.72R FOG     WCI   4
BUFFALO WY     SNOW      19  13  77 N29G37    29.73R VSB 1/2 WCI   0
CODY           FLURRIES  18  11  74 N10       29.82R WCI   6
YELLOWSTONE LA   N/A      5  -2  72 VRB7      29.76R WCI  -7
SALMON         MOSUNNY   21   9  58 S8        30.03R WCI  12
SPOKANE        PTSUNNY   22  19  89 S6        30.06R WCI  14
$$

REGIONAL REPORTS...ALBERTA

CITY           SKY/WX    TMP DP  RH WIND       PRES   REMARKS
EDMONTON       MOCLDY     1  -6  71 NW12      30.14R WCI -15
CALGARY        CLOUDY     7  -2  66 N20       30.01R WCI -13
LETHBRIDGE     LGT SNOW   7   1  78 NW9       30.09R DRFTSNOWWCI  -7
MEDICINE HAT   PTSUNNY    5  -2  72 W14G20    30.07R WCI -12
WATERTON GATE    N/A      7   3  85 E3          N/A
MILK RIVER       N/A      5   0  78 N22G28      N/A  WCI -16
$$

REGIONAL REPORTS...SASKATCHEWAN

CITY           SKY/WX    TMP DP  RH WIND       PRES   REMARKS
SWIFT CURRENT  CLOUDY     5   1  85 NW31      29.85R FOG     WCI -19
REGINA         FLURRIES  18  14  86 NW24G31   29.76R WCI   0
SASKATOON      FLURRIES  14   7  73 NW15G24   29.88R WCI  -1
CYPRESS HILLS    N/A     -4  -9  77 NW20G32     N/A  WCI -27
VAL MARIE        N/A      7   1  78 NW25G32     N/A  WCI -15
ROCKGLEN         N/A      7   3  85 NW26G37     N/A  WCI -16
ASSINIBOIA       N/A      3  -4  72 NW22G28     N/A  WCI -19
$$




USA.gov is the U.S. government's official web portal to all federal, state and local government web resources and services.